sat.trackr.live / text

‹ back to catalog

STARLINK-33744

NORAD 63471 · 2025-070M

PAYLOAD ACTIVE UNKNOWN

§ Identity

Operator
Country
US
Launch date
2025-04-06
Launch site
AFETR
Launch vehicle
Mass (kg)
RCS (m²)

Purposes: comms

External: N2YO · Heavens-Above · Gunter

§ Orbital elements

Epoch: 2026-05-25T03:00:45.929376Z

Period
94.27 min
Inclination
42.9989°
Eccentricity
0.0001420
Mean motion
15.27589726 rev/d
Perigee alt
482.0 km
Apogee alt
484.0 km
Semi-major
6,861.2 km
B*
4.0205e-4
RAAN
188.3553°
Arg perigee
241.8525°
Mean anomaly
118.2183°
Rev number
6,466

§ Raw data

STARLINK-337441 63471U 25070M   26145.12553159  .00010821  00000+0  40205-3 0  99992 63471  42.9989 188.3553 0001420 241.8525 118.2183 15.27589726 64669

JSON: /api/v1/satellites/63471 · /tle

For live sub-satellite position, see the globe view (requires WebGL).

§ Visibility from observer

Set your observer location to see the next 7 days of passes ≥ 10°. The values pass through the URL so the page stays shareable.

No JS? Fill the form by hand. The geolocation button needs JavaScript.